Location: Proctor
(47.8934°N, 114.3048°W)
Time: 06:56:56
(UTC+00:00)

ISS - Pass Details

Date: 28 May 2024
Orbit: 409 x 421 km, 51.6° (Epoch: 13 June)

Event Time Altitude Azimuth Distance (km) Brightness Sun altitude
Rises 04:02:09 0° 289° (WNW) 2,376 1.6 -5.9°
Reaches altitude 10° 04:04:28 10° 277° (W) 1,505 0.0 -6.2°
Maximum altitude 04:07:20 26° 219° (SW) 867 -2.2 -6.5°
Drops below altitude 10° 04:10:10 10° 160° (SSE) 1,491 -1.5 -6.9°
Enters shadow 04:10:42 - 156° (SSE) 1,680 -1.3 -6.9°
